{"data":{"norad_id":59798,"epoch":"2026-05-25T00:18:14.909184Z","epoch_age_seconds":73822,"freshness":"FRESH","line1":"1 59798U 24093S   26145.01267256 -.00000159  00000+0  37450-5 0  9992","line2":"2 59798  42.9995 138.2392 0001206 274.1074  85.9640 15.27573349114363","mean_motion":15.27573349,"eccentricity":0.0001206,"inclination_deg":42.9995,"raan_deg":138.2392,"arg_perigee_deg":274.1074,"mean_anomaly_deg":85.964,"bstar":3.745e-6,"rev_number":11436,"period_min":94.267159147721,"perigee_km":482.2415501536,"apogee_km":483.8964730436,"semimajor_km":6861.2060115986,"source":"CELESTRAK","updated_at":"2026-05-25T13:38:19.083187Z"}}